Weather History for Keahole Point, HI

Change the Weather History Date:

Thursday, November 15, 2012

  Actual Average Record
Temperature  
Mean Temperature 76 °F -  
Max Temperature 82 °F 82 °F 91 °F (1986)
Min Temperature 71 °F 70 °F 68 °F (1999)
Cooling Degree Days 12    
Growing Degree Days 26 (Base 50)    
Moisture  
Dew Point 62 °F    
Average Humidity 60    
Maximum Humidity 71    
Minimum Humidity 50    
Precipitation  
Precipitation 0.00 in - - ()
Sea Level Pressure  
Sea Level Pressure 30.04 in    
Wind  
Wind Speed 4 mph (NE)    
Max Wind Speed 16 mph    
Max Gust Speed -    
Visibility 10 miles    
Events Rain    
Averages and records for this station are not official NWS values.
T = Trace of Precipitation, MM = Missing Value Source: NWS Daily Summary

Daily Weather History Graph

Daily Weather History Graph

Search for Another Location

Airport:

Trip Planner

Search our weather history database for the weather conditions in past years. The results will help you decide how hot, cold, wet, or windy it might be!

Date:

Astronomy

Nov. 15, 2012 Rise Set
Actual Time 6:33 AM HST 5:44 PM HST
Civil Twilight 6:09 AM HST 6:07 PM HST
Nautical Twilight 5:43 AM HST 6:34 PM HST
Astronomical Twilight 5:16 AM HST 7:00 PM HST
Moon 8:31 AM HST (11/15) 7:56 PM HST (11/15)
Length of Visible Light 11h 57m
Length of Day
11h 11m
Waxing Crescent, 6% of the Moon is Illuminated
Nov 15
Waxing Crescent
Nov 20
First Quarter
Nov 28
Full
Dec 6
Last Quarter
Dec 12
New

Hourly Weather History & Observations

Time (HST) Temp. Heat Index Dew Point Humidity Pressure Visibility Wind Dir Wind Speed Gust Speed Precip Events Conditions
12:53 AM 77.0 °F - 64.0 °F 64% 30.06 in 10.0 mi Calm Calm - N/A   Overcast
1:53 AM 75.0 °F - 63.0 °F 66% 30.04 in 10.0 mi East 4.6 mph - N/A   Clear
2:53 AM 73.0 °F - 61.0 °F 66% 30.04 in 10.0 mi Calm Calm - N/A   Clear
3:53 AM 73.0 °F - 61.0 °F 66% 30.04 in 10.0 mi ENE 3.5 mph - N/A   Clear
4:53 AM 73.0 °F - 62.1 °F 68% 30.03 in 10.0 mi East 3.5 mph - N/A   Partly Cloudy
5:53 AM 72.0 °F - 62.1 °F 71% 30.04 in 10.0 mi East 3.5 mph - N/A   Partly Cloudy
6:53 AM 71.1 °F - 60.1 °F 68% 30.06 in 10.0 mi East 5.8 mph - N/A   Clear
7:53 AM 78.1 °F - 60.1 °F 54% 30.08 in 10.0 mi NE 3.5 mph - N/A   Clear
8:53 AM 79.0 °F - 62.1 °F 56% 30.08 in 10.0 mi WNW 5.8 mph - N/A   Partly Cloudy
9:53 AM 80.1 °F 81.5 °F 63.0 °F 56% 30.08 in 10.0 mi SW 8.1 mph - N/A   Clear
10:53 AM 81.0 °F 81.7 °F 61.0 °F 50% 30.07 in 10.0 mi WNW 5.8 mph - N/A   Partly Cloudy
11:53 AM 80.1 °F 81.5 °F 63.0 °F 56% 30.06 in 10.0 mi WNW 8.1 mph - N/A   Mostly Cloudy
12:53 PM 81.0 °F 82.7 °F 64.9 °F 58% 30.02 in 10.0 mi SW 6.9 mph - N/A   Mostly Cloudy
1:53 PM 82.9 °F 84.6 °F 64.9 °F 54% 30.00 in 10.0 mi SW 9.2 mph - N/A   Clear
2:53 PM 81.0 °F 82.7 °F 64.9 °F 58% 29.99 in 10.0 mi SSW 9.2 mph - N/A   Overcast
3:53 PM 81.0 °F 82.2 °F 63.0 °F 54% 29.99 in 10.0 mi South 4.6 mph - N/A   Overcast
4:53 PM 80.1 °F 81.7 °F 64.0 °F 58% 30.00 in 10.0 mi WSW 3.5 mph - N/A   Overcast
5:53 PM 79.0 °F - 64.9 °F 62% 30.01 in 10.0 mi SSW 3.5 mph - N/A   Overcast
6:53 PM 79.0 °F - 64.9 °F 62% 30.02 in 10.0 mi South 3.5 mph - N/A   Partly Cloudy
7:53 PM 78.1 °F - 59.0 °F 52% 30.04 in 10.0 mi North 5.8 mph - N/A   Mostly Cloudy
8:53 PM 77.0 °F - 61.0 °F 58% 30.05 in 10.0 mi NE 4.6 mph - N/A   Mostly Cloudy
9:36 PM 77.0 °F - 64.4 °F 65% 30.05 in 10.0 mi NNE 6.9 mph - 0.00 in   Overcast
9:53 PM 75.9 °F - 60.1 °F 58% 30.05 in 10.0 mi NNE 16.1 mph - 0.00 in   Overcast
10:13 PM 75.2 °F - 60.8 °F 61% 30.04 in 10.0 mi NNE 10.4 mph - 0.00 in Rain Light Rain
10:53 PM 75.0 °F - 59.0 °F 57% 30.05 in 10.0 mi NE 5.8 mph - 0.00 in   Clear
11:53 PM 75.9 °F - 61.0 °F 60% 30.04 in 10.0 mi NE 5.8 mph - N/A   Clear